AO-07 1 07530U 74089B 20191.43592560 -.00000034 00000-0 69452-4 0 9998 2 07530 101.8008 161.0552 0012038 323.8755 148.8707 12.53644097088745 UO-11 1 14781U 84021B 20191.75502157 .00000046 00000-0 11748-4 0 9996 2 14781 97.5891 202.6201 0009759 122.5118 237.7040 14.83176955956131 LO-19 1 20442U 90005G 20191.43758226 -.00000017 00000-0 10137-4 0 9991 2 20442 098.6932 138.7625 0012959 090.0652 270.2016 14.32956167591705 HUBBLE 1 20580U 90037B 20191.65636127 .00000303 00000-0 74216-5 0 9994 2 20580 28.4683 172.8109 0002531 335.8605 187.2043 15.09404170459416 MET-2/21 1 22782U 93055A 20191.58821091 .00000013 00000-0 -13549-5 0 9992 2 22782 82.5478 216.0168 0022662 169.6077 314.3124 13.83826333356377 AO-27 1 22825U 93061C 20191.76165249 -.00000020 00000-0 10304-4 0 9996 2 22825 98.9231 194.7756 0007655 318.2525 41.8072 14.30088243397274 IO-26 1 22826U 93061D 20191.46304333 -.00000015 00000-0 12051-4 0 9998 2 22826 098.9171 194.4141 0008013 305.6719 054.3716 14.30424133397194 FO-29 1 24278U 96046B 20191.57239207 -.00000020 00000-0 18232-4 0 9999 2 24278 98.5860 298.5086 0349665 317.7159 39.7499 13.53098020180129 NOAA-15 1 25338U 98030A 20191.39650250 .00000055 00000-0 41644-4 0 9997 2 25338 98.7153 216.3346 0010128 192.6363 167.4564 14.25977749152357 GO-32 1 25397U 98043D 20191.44286130 -.00000021 00000-0 10093-4 0 9992 2 25397 098.7291 132.7743 0001718 038.2399 321.8901 14.23687174142680 ISS 1 25544U 98067A 20191.88367088 .00003092 00000-0 63825-4 0 9993 2 25544 51.6456 236.1403 0002867 84.0808 88.2286 15.49204606235538 NO-44 1 26931U 01043C 20191.40143688 -.00000029 00000-0 20650-4 0 9995 2 26931 067.0520 085.7572 0005868 273.4078 086.6352 14.30581534980219 SO-50 1 27607U 02058C 20191.59675189 -.00000039 00000-0 14934-4 0 9998 2 27607 64.5562 306.6665 0045169 170.5572 189.6390 14.75644981944121 CO-55 1 27844U 03031E 20191.31148981 .00000020 00000-0 28840-4 0 9998 2 27844 098.6808 198.7160 0009818 359.9848 000.1328 14.22245705883207 CO-57 1 27848U 03031J 20191.55561721 .00000013 00000-0 25654-4 0 9991 2 27848 98.6876 199.5153 0009959 11.4687 348.6715 14.21831678883113 RS-22 1 27939U 03042A 20191.48740386 .00000052 00000-0 17927-4 0 9999 2 27939 098.0954 326.0183 0011655 285.1692 074.8224 14.66870660897242 NOAA-18 1 28654U 05018A 20191.40512742 .00000055 00000-0 54161-4 0 9998 2 28654 99.0422 248.0378 0014652 165.4195 194.7402 14.12523743780109 CO-58 1 28895U 05043F 20191.35670641 .00000076 00000-0 23499-4 0 9993 2 28895 098.0129 327.1019 0016182 207.3756 152.6595 14.63781288783812 Falconsat-3 1 30776U 07006E 20191.56067459 .00001648 00000-0 44627-4 0 9997 2 30776 35.4337 138.5632 0002217 1.4484 358.6249 15.37883976740242 CO-65 1 32785U 08021C 20191.71743694 .00000132 00000-0 19821-4 0 9991 2 32785 97.5733 178.7555 0014470 62.7728 297.4962 14.88485399661255 AAUSAT2 1 32788U 08021F 20191.73951217 .00000247 00000-0 27509-4 0 9997 2 32788 97.4905 195.2476 0011287 349.1353 10.9623 14.95084783662740 DO-64 1 32789U 08021G 20191.56694959 .00000442 00000-0 32804-4 0 9997 2 32789 97.4165 233.5946 0010576 235.0672 124.9564 15.07780605665242 CO-66 1 32791U 08021J 20191.74696494 .00000195 00000-0 25043-4 0 9998 2 32791 97.5408 184.9133 0014187 34.3434 325.8699 14.91068700661784 RS-30 1 32953U 08025A 20191.52986386 .00000037 00000-0 19437-3 0 9994 2 32953 082.5020 264.1710 0018990 009.6647 350.4789 12.43096948550373 PRISM 1 33493U 09002B 20191.37733665 .00000600 00000-0 57530-4 0 9996 2 33493 98.1447 132.5794 0014579 348.5874 11.5014 14.97063267622998 NOAA-19 1 33591U 09005A 20191.48136975 .00000032 00000-0 42948-4 0 9997 2 33591 99.1948 197.4020 0014280 18.4619 341.7067 14.12420127588508 TISAT-1 1 36799U 10035E 20191.44348739 .00000177 00000-0 23891-4 0 9990 2 36799 098.1960 002.5630 0010871 256.5553 103.4453 14.91377480542200 JUGNU 1 37839U 11058B 20191.24296226 .00000285 00000-0 98762-5 0 9993 2 37839 019.9601 150.6222 0018727 268.2661 118.9183 14.12683267451878 SRMSAT 1 37841U 11058D 20191.42366356 .00000296 00000-0 17355-4 0 9998 2 37841 019.9704 214.3148 0012006 124.5909 265.2610 14.10662847451277 AO-71 1 37854U 11061E 20191.33638239 .00000330 00000-0 24705-4 0 9994 2 37854 101.7015 293.8735 0158111 356.7419 003.2751 15.07336291474777 HRBE 1 37855U 11061F 20191.49572649 .00000469 00000-0 31155-4 0 9994 2 37855 101.7145 291.2633 0170721 9.5518 350.8872 15.06362871474996 HORYU-2 1 38340U 12025D 20191.44781524 .00000104 00000-0 23148-4 0 9993 2 38340 098.2790 245.5144 0010775 337.4754 022.5980 14.75865732427796 RS-40 1 38735U 12041C 20191.43132890 -.00000002 00000-0 -90429-4 0 9999 2 38735 082.4758 346.9559 0017698 112.7445 247.5501 12.42579999360581 BEESAT-3 1 39135U 13015F 20191.44071955 .00000439 00000-0 30985-4 0 9994 2 39135 064.8664 230.4009 0035377 241.8841 117.8709 15.18221689398554 BEESAT-2 1 39136U 13015G 20191.56310828 .00000494 00000-0 34202-4 0 9990 2 39136 64.8699 235.0526 0032085 277.3816 82.3665 15.17606083398862 ZACUBE-1 1 39417U 13066B 20191.72421611 .00000120 00000-0 21451-4 0 9997 2 39417 97.5648 188.5089 0058127 203.4752 156.3807 14.81288534358336 TRITON-1 1 39427U 13066M 20191.49417859 .00000151 00000-0 32098-4 0 9994 2 39427 97.7260 151.1957 0114437 8.1480 352.1548 14.68016123355090 GOMX-1 1 39430U 13066Q 20191.40259261 .00000110 00000-0 28488-4 0 9993 2 39430 097.7919 128.6060 0152035 115.1159 246.5899 14.59409153353000 LO-74 1 39440U 13066AA 20191.52161510 .00000113 00000-0 22918-4 0 9991 2 39440 97.6317 172.8049 0078480 268.6128 90.6092 14.76024690357039 AO-73 1 39444U 13066AE 20191.70916674 .00000174 00000-0 27637-4 0 9994 2 39444 97.5589 190.7376 0057439 195.4875 164.4583 14.82144264357258 SPROUT 1 39770U 14029E 20191.34170599 .00000343 00000-0 43647-4 0 9991 2 39770 097.8984 297.5268 0007461 255.0759 104.9639 14.87786622332318 DUCHIFAT-1 1 40021U 14033M 20191.29286617 .00000355 00000-0 41864-4 0 9992 2 40021 097.9428 122.6637 0011885 210.2232 149.8301 14.90925042329141 NANOSATCBR1 1 40024U 14033Q 20191.39511074 .00000173 00000-0 23792-4 0 9992 2 40024 097.9274 119.0764 0011115 214.3512 145.6988 14.90091734328502 DTUSAT-2 1 40030U 14033W 20191.53109246 .00000168 00000-0 24032-4 0 9991 2 40030 97.9027 113.2578 0010797 217.6515 142.3947 14.88728099328808 EO-80 1 40032U 14033Y 20191.34909302 .00000143 00000-0 21391-4 0 9991 2 40032 097.9034 113.0787 0010739 219.2105 140.8335 14.88677170328242 ANTELSAT 1 40034U 14033AA 20191.45981913 .00000126 00000-0 26093-4 0 9998 2 40034 097.7123 046.0965 0057171 288.2488 071.2505 14.74269485325126 VELOX-1 1 40057U 14034E 20191.57263046 .00000181 00000-0 32778-4 0 9995 2 40057 98.2826 329.1466 0012148 77.8936 282.3644 14.77888577324909 DAURIA DX 1 1 40071U 14037C 20191.53671446 .00000069 00000-0 16439-4 0 9998 2 40071 98.4606 11.1585 0009588 69.2341 290.9913 14.81374119324521 HODOYOSHI-1 1 40299U 14070B 20191.45889418 .00000459 00000-0 21718-4 0 9997 2 40299 097.3224 267.6853 0014502 115.0654 014.9958 15.24095210315165 CHUBUSAT-1 1 40300U 14070C 20191.28784743 .00000457 00000-0 22545-4 0 9993 2 40300 97.2864 259.7952 0020664 132.8640 267.6385 15.22537910314837 QSAT-EOS 1 40301U 14070D 20191.54343587 .00001321 00000-0 52070-4 0 9997 2 40301 097.2924 265.4811 0026731 108.9362 004.4567 15.27013691315301 FIREBIRD FU3 1 40377U 15003B 20191.44566259 .00000936 00000-0 40021-4 0 9993 2 40377 099.0936 256.1503 0122612 240.3840 118.5131 15.20121540300640 FIREBIRD FU4 1 40378U 15003C 20191.42968567 .00000944 00000-0 40273-4 0 9998 2 40378 99.0939 256.2312 0122795 240.3008 118.5954 15.20137091300653 GRIFEX 1 40379U 15003D 20191.45278726 .00000540 00000-0 27193-4 0 9991 2 40379 99.1005 248.0491 0131542 265.8948 92.7236 15.16461195300185 NO-84 1 40654U 15025D 20191.36416717 .00006093 00000-0 75203-4 0 9797 2 40654 54.9855 199.6316 0111845 244.4166 114.5188 15.54663568172433 DEORBITSAIL 1 40719U 15032E 20191.45069561 .00000256 00000-0 43355-4 0 9998 2 40719 97.8677 79.5488 0017253 132.6865 227.5802 14.77021531269348 NUDT-PHONESAT 1 40900U 15049B 20191.52475837 .00001524 00000-0 65466-4 0 9999 2 40900 097.4303 202.2868 0010697 266.2929 245.0373 15.24185729266550 XW-2A 1 40903U 15049E 20191.49278153 .00001541 00000-0 36656-4 0 9998 2 40903 097.2860 240.4597 0013125 175.3841 299.7798 15.43160015269871 XW-2C 1 40906U 15049H 20191.55960610 .00000285 00000-0 18231-4 0 9997 2 40906 097.4759 192.5824 0013384 301.7832 173.8719 15.16097879265604 XW-2D 1 40907U 15049J 20191.55040307 .00000447 00000-0 26477-4 0 9991 2 40907 097.4747 192.2828 0012664 298.2523 179.9875 15.16335021265626 LILACSAT-2 1 40908U 15049K 20191.52131824 .00000333 00000-0 21921-4 0 9997 2 40908 097.4898 190.5762 0014647 309.4865 166.9828 15.14058992265338 XW-2E 1 40909U 15049L 20191.55961638 .00000654 00000-0 35007-4 0 9991 2 40909 097.4621 195.8083 0011789 287.9430 191.4453 15.18472439265886 XW-2F 1 40910U 15049M 20191.58398377 .00000639 00000-0 34763-4 0 9991 2 40910 097.4665 194.9237 0013147 286.6497 196.8744 15.17981668265695 XW-2B 1 40911U 15049N 20191.47575074 .00000636 00000-0 36266-4 0 9998 2 40911 097.4755 192.9062 0012524 299.9030 212.7852 15.16261595265505 DCBB 1 40912U 15049P 20191.48180808 .00000870 00000-0 43057-4 0 9993 2 40912 097.4471 198.9938 0012946 261.6947 244.5496 15.20380887266060 TW-1C 1 40926U 15051B 20191.41022083 .00018088 00000-0 17367-3 0 9998 2 40926 97.0820 243.3390 0005706 25.7120 31.2312 15.66642287270466 TW-1A 1 40928U 15051D 20191.39754602 .00002488 00000-0 58773-4 0 9990 2 40928 97.1075 218.6935 0012317 104.3128 20.2709 15.42713964268751 IO-86 1 40931U 15052B 20190.55725796 .00000658 00000-0 24700-5 0 9995 2 40931 5.9995 184.8915 0013020 219.8448 140.1196 14.76638140258382 LQSat 1 40958U 15057A 20191.46524588 -.00000008 00000-0 63423-5 0 9991 2 40958 97.8513 254.1217 0019580 80.3597 279.9822 14.73123939255742 ATHENOXAT-1 1 41168U 15077C 20191.56428807 .00001312 00000-0 32701-4 0 9997 2 41168 14.9877 259.1895 0011341 75.8166 284.3414 15.14415470252704 ChubuSat-2 1 41338U 16012B 20191.45721803 .00000214 00000-0 98685-5 0 9990 2 41338 031.0019 206.5520 0013746 334.6475 025.3485 15.00303617241042 ChubuSat-3 1 41339U 16012C 20191.38293446 .00000236 00000-0 11502-4 0 9996 2 41339 31.0117 204.6342 0013672 341.9738 18.0410 15.00467795241038 Horyu-4 1 41340U 16012D 20191.37006578 .00000289 00000-0 15153-4 0 9999 2 41340 031.0036 192.2130 0013881 006.4020 353.6791 15.01514623241175 OUFTI-1 1 41458U 16025C 20191.32996259 .00002189 00000-0 11169-3 0 9995 2 41458 098.1074 303.0649 0164403 135.7466 225.7045 15.06923281230779 e-st@r-II 1 41459U 16025D 20191.51478908 .00002683 00000-0 13689-3 0 9991 2 41459 098.1084 302.6568 0165979 137.3619 224.0616 15.06488381230765 AAUSAT4 1 41460U 16025E 20191.35285500 .00002064 00000-0 10320-3 0 9991 2 41460 098.1040 304.8916 0154917 126.2945 235.2691 15.08817372230944 LO-87 1 41557U 16033B 20191.51314128 .00000778 00000-0 31093-4 0 9995 2 41557 97.4041 281.5940 0013853 17.1983 342.9723 15.28064456229146 NuSat2 1 41558U 16033C 20191.51529344 .00000845 00000-0 31615-4 0 9999 2 41558 97.4098 283.9812 0012797 14.8221 345.3392 15.30055279229266 Lapan A3 1 41603U 16040E 20191.53734185 .00000203 00000-0 12556-4 0 9992 2 41603 097.3070 244.3885 0014729 121.2014 021.2161 15.19848651224492 Swayam 1 41607U 16040J 20191.38952582 .00001037 00000-0 45219-4 0 9990 2 41607 097.3160 250.2417 0014832 107.7590 252.5268 15.24292109224760 Pratham 1 41783U 16059A 20191.42581403 .00000032 00000-0 15479-4 0 9999 2 41783 098.0148 246.2665 0032277 246.0328 113.7493 14.63062806202099 AlSat 1N 1 41789U 16059G 20191.42432151 .00000048 00000-0 17998-4 0 9995 2 41789 98.0188 249.1346 0027273 232.6962 127.1758 14.64328360202243 ScatSat 1 41790U 16059H 20191.39617531 -.00000000 00000-0 10721-4 0 9996 2 41790 98.1591 231.0287 0004848 204.1978 155.8990 14.50922080200408 TY-1 1 41844U 16066D 20191.55311707 .00000573 00000-0 25926-4 0 9995 2 41844 097.4016 199.4742 0013206 266.4034 208.0235 15.24883181203638 Pegasus-1 1 41846U 16066F 20191.41980791 .00000181 00000-0 37337-4 0 9991 2 41846 098.6598 241.7054 0367256 167.6130 193.4396 14.37782826192124 CAS-2T 1 41847U 16066G 20191.40253430 .00000051 00000-0 17725-4 0 9999 2 41847 098.6521 242.1399 0366108 163.3615 197.9968 14.38076246192570 EO-88 1 42017U 17008BX 20191.37741520 .00000970 00000-0 39879-4 0 9998 2 42017 097.3588 258.6195 0004715 234.8328 125.2470 15.26548427188898 CAS-4B 1 42759U 17034B 20191.45378279 -.00000021 00000-0 12155-4 0 9992 2 42759 043.0197 266.1767 0009949 176.3351 295.0054 15.09840447169299 CAS-4A 1 42761U 17034D 20191.46386819 .00000109 00000-0 20064-4 0 9999 2 42761 043.0199 265.4065 0010551 177.4762 298.0923 15.09920213169294 UCLSat 1 42765U 17036A 20191.42212807 .00000743 00000-0 33934-4 0 9990 2 42765 097.2990 245.0726 0009871 315.4656 044.5787 15.23567101169926 NIUSat 1 42766U 17036B 20191.16845342 .00000570 00000-0 28095-4 0 9998 2 42766 097.2985 242.2377 0013946 307.9034 052.0940 15.21753366168995 LituanicaSAT 2 1 42768U 17036D 20191.19418548 .00001324 00000-0 57238-4 0 9996 2 42768 097.3048 244.8574 0012983 303.0554 056.9437 15.24142164169153 Aalto 1 1 42775U 17036L 20191.41357418 .00000475 00000-0 23835-4 0 9999 2 42775 097.2966 242.8197 0012334 306.8104 053.2000 15.21869396169011 URSA MAIOR 1 42776U 17036M 20191.40022642 .00000522 00000-0 25768-4 0 9997 2 42776 097.2978 243.1007 0012141 306.5944 053.4175 15.22054694169028 Max Valier Sat 1 42778U 17036P 20191.42342463 .00000580 00000-0 27820-4 0 9992 2 42778 097.3033 244.4504 0010700 310.5435 049.4870 15.22653024169072 Pegasus 1 42784U 17036V 20191.38622726 .00000715 00000-0 33048-4 0 9996 2 42784 097.2996 244.7185 0010499 316.2120 043.8284 15.23255016169115 NUDATSat 1 42787U 17036Y 20191.62112540 .00001128 00000-0 48573-4 0 9992 2 42787 97.3040 246.3926 0011218 314.3125 45.7192 15.24583578169076 SUCHAI 1 1 42788U 17036Z 20191.40250281 .00000861 00000-0 38611-4 0 9999 2 42788 097.3005 245.3430 0009981 314.4592 045.5828 15.23812527169229 SKCUBE 1 42789U 17036AA 20191.18818520 .00000792 00000-0 35896-4 0 9996 2 42789 097.2999 244.9803 0009907 315.7800 044.2645 15.23650790169106 VZLUSAT 1 1 42790U 17036AB 20191.41341636 .00001098 00000-0 47401-4 0 9998 2 42790 097.3024 246.1864 0009302 312.4042 047.6408 15.24568982169195 VENTA 1 1 42791U 17036AC 20191.42519421 .00000738 00000-0 33671-4 0 9993 2 42791 097.2997 245.2523 0009564 315.6375 044.4096 15.23633087169130 Robusta 1B 1 42792U 17036AD 20191.40195727 .00000831 00000-0 37309-4 0 9997 2 42792 097.3002 245.4465 0009476 315.6002 044.4475 15.23841524169166 D-SAT 1 42794U 17036AF 20191.31590348 .00000107 00000-0 14894-4 0 9997 2 42794 097.4918 222.8887 0124643 292.3395 066.4652 14.91289520165952 TechnoSat 1 42829U 17042E 20191.56220925 .00000144 00000-0 19796-4 0 9998 2 42829 97.5171 72.3012 0013395 205.7657 154.2896 14.91109349162583 QIKCOM-1 1 42983U 98067NF 20191.70519270 .00002292 00000-0 32062-4 0 9992 2 42983 51.6374 193.3193 0003923 132.0482 228.0846 15.61703214153762 AO-91 1 43017U 17073E 20191.31000233 .00000427 00000-0 38964-4 0 9995 2 43017 97.7219 102.7021 0256459 339.5083 19.5983 14.78964207142399 EcAMSat 1 43019U 98067NG 20191.39087161 .00005126 00000-0 53422-4 0 9999 2 43019 51.6392 180.0528 0003979 118.4206 241.7191 15.66517794236231 PICSAT 1 43132U 18004X 20191.50074007 .00000804 00000-0 35677-4 0 9996 2 43132 97.4464 262.7064 0008926 346.4306 13.6690 15.24461959138415 AO-92 1 43137U 18004AC 20191.47778156 .00000638 00000-0 29159-4 0 9996 2 43137 97.4449 262.4892 0008619 349.2667 10.8385 15.24158278138393 TianYi 2 1 43155U 18008A 20191.51416880 .00000794 00000-0 50260-4 0 9998 2 43155 97.4453 260.0442 0018776 70.2332 344.3623 15.11664013136256 Zhou Enlai 1 43156U 18008B 20191.56648964 .00000235 00000-0 17732-4 0 9991 2 43156 097.4505 259.9409 0016324 072.5061 065.6446 15.11204666136212 TianYi 6 1 43158U 18008D 20191.44518844 .00000711 00000-0 46589-4 0 9994 2 43158 097.4451 258.8536 0015280 072.5007 352.0125 15.10743126136140 S-Net G 1 43186U 18014G 20191.37526312 .00000116 00000-0 15190-4 0 9996 2 43186 097.6934 098.8585 0011796 143.4164 216.7866 14.96823095132977 S-Net H 1 43187U 18014H 20191.37508931 .00000124 00000-0 15833-4 0 9997 2 43187 097.6931 098.8361 0011802 143.3546 216.8486 14.96822896132975 S-Net J 1 43188U 18014J 20191.30811180 .00000154 00000-0 18435-4 0 9998 2 43188 097.6935 098.8007 0011791 143.6272 216.5753 14.96822720132962 S-Net K 1 43189U 18014K 20191.37539166 .00000104 00000-0 14089-4 0 9993 2 43189 097.6931 098.8316 0011788 143.3582 216.8448 14.96822077131529 FMN 1 1 43192U 18015A 20191.57073846 .00001435 00000-0 59055-4 0 9998 2 43192 097.4466 320.9552 0016056 017.5060 111.2058 15.25684514135277 Shaonian Xing 1 43199U 18015H 20191.56214174 .00001015 00000-0 42407-4 0 9992 2 43199 097.4255 319.1610 0017315 026.8104 101.8983 15.25824412135338 UBAKUSAT 1 43467U 98067NQ 20191.48143250 .00019331 00000-0 12311-3 0 9992 2 43467 51.6353 168.2749 0002148 82.8707 277.2537 15.76453994123588 EnduroSat One 1 43551U 98067NZ 20191.33950608 .00041646 00000-0 18845-3 0 9995 2 43551 51.6321 164.9991 0002209 117.1354 242.9875 15.83520892113849 EQUISat 1 43552U 98067PA 20191.37440789 .00019935 00000-0 13313-3 0 9995 2 43552 051.6321 175.9270 0002700 155.6855 204.4273 15.75335234113661 UiTMSat 1 1 43589U 98067PD 20191.67159416 .00028401 00000-0 16256-3 0 9999 2 43589 51.6328 171.7153 0001435 166.9768 193.1270 15.78603518109486 Maya 1 1 43590U 98067PE 20191.22136561 .00027594 00000-0 15826-3 0 9992 2 43590 51.6278 173.9414 0001519 148.9864 211.1227 15.78575693109346 Bhutan 1 1 43591U 98067PF 20191.31807329 .00028919 00000-0 16427-3 0 9990 2 43591 051.6338 173.1830 0001430 167.5196 192.5841 15.78763061109369 SiriusSat 1 1 43595U 98067PG 20191.66475451 .00022229 00000-0 14457-3 0 9998 2 43595 51.6287 176.9512 0001919 96.5206 263.6012 15.75866459108528 SiriusSat 2 1 43596U 98067PH 20191.66472216 .00021913 00000-0 14330-3 0 9994 2 43596 51.6282 177.7781 0002085 98.7970 261.3266 15.75750077108511 Tanusha-3 1 43597U 98067PJ 20191.44979215 .00072617 00000-0 24386-3 0 9991 2 43597 051.6259 163.2636 0003254 074.1441 285.9923 15.89414384108688 SurfSat 1 43614U 18070B 20191.44482877 .00001750 00000-0 45069-4 0 9992 2 43614 093.0214 163.6775 0012414 248.8770 111.1157 15.39276259101864 CP-7 DAVE 1 43615U 18070C 20191.67341830 .00001675 00000-0 43338-4 0 9994 2 43615 93.0215 163.7612 0012598 247.2618 112.7305 15.39126697101899 ELFIN-B 1 43616U 18070D 20191.43432998 .00002534 00000-0 62563-4 0 9991 2 43616 093.0178 163.6119 0012839 249.9265 110.0608 15.40513619101909 ELFIN-A 1 43617U 18070E 20191.65979097 .00002506 00000-0 61487-4 0 9995 2 43617 93.0230 164.2355 0012260 244.5040 115.4948 15.40708312101944 STARS-Me Mother 1 43640U 98067PQ 20191.44115386 .00008500 00000-0 86043-4 0 9990 2 43640 051.6332 196.6491 0004196 104.6563 255.4898 15.66221927100171 CubeBel 1 1 43666U 18083E 20191.52551645 .00000765 00000-0 40598-4 0 9999 2 43666 097.4864 217.7713 0013368 285.5543 231.4417 15.18297124093965 Changshagaoxin 1 43669U 18083H 20191.57121070 .00000480 00000-0 27423-4 0 9998 2 43669 97.4755 215.9421 0009128 278.4211 81.5988 15.17320659 93882 Ten-Koh 1 43677U 18084G 20191.57926601 -.00000002 00000-0 56502-5 0 9993 2 43677 97.8856 308.5906 0017538 86.1996 274.1227 14.90295810 92236 PO-101 1 43678U 18084H 20191.54418167 -.00000311 00000-0 -25200-4 0 9998 2 43678 97.8872 309.9497 0011249 102.5295 257.7199 14.91633911 92316 IRVINE 01 1 43693U 18088D 20191.37262691 .00001585 00000-0 65594-4 0 9991 2 43693 085.0345 062.5041 0016431 204.0946 155.9529 15.22949739092187 QO-100 1 43700U 18090A 20191.31049787 .00000136 00000-0 00000-0 0 9994 2 43700 000.0136 061.0649 0001651 073.3123 290.8729 01.00273082005920 Reaktor Hello World 1 43743U 18096AA 20191.30945853 .00000818 00000-0 33091-4 0 9992 2 43743 097.4205 265.0729 0019200 054.4145 305.8879 15.27452629089736 MinXSS-2 1 43758U 18099A 20191.27519727 .00000578 00000-0 56991-4 0 9991 2 43758 97.7054 262.8594 0017148 114.8914 245.4092 14.95681043 87211 AO-95 1 43770U 18099N 20191.46206500 .00000162 00000-0 19997-4 0 9992 2 43770 97.7048 262.4586 0015948 121.1856 239.0930 14.95000546 87209 RANGE-B 1 43772U 18099Q 20191.47950894 .00000662 00000-0 65321-4 0 9994 2 43772 97.7118 263.0098 0015798 109.5387 250.7541 14.95193798 87206 RANGE-A 1 43773U 18099R 20191.45306860 -.00000143 00000-0 -78920-5 0 9997 2 43773 97.6990 262.0740 0015008 109.2795 251.0050 14.94976186 87197 MOVE-II 1 43780U 18099Y 20191.47187549 .00000610 00000-0 60326-4 0 9995 2 43780 97.7052 262.6931 0015048 118.9262 241.3470 14.95418693 87208 SNUSat 2 1 43782U 18099AA 20191.48630861 .00000545 00000-0 54624-4 0 9999 2 43782 097.7047 262.7021 0014381 108.5089 251.7695 14.95269974087217 SnugLite 1 43784U 18099AC 20191.45325085 -.00000121 00000-0 -57835-5 0 9997 2 43784 097.7010 262.4897 0016477 116.1541 244.1377 14.95366900087224 ITASat 1 1 43786U 18099AE 20191.45400984 -.00000168 00000-0 -10007-4 0 9991 2 43786 97.7064 262.8859 0016584 115.3376 244.9564 14.95338505 87229 EAGLET 1 1 43790U 18099AJ 20191.44041790 -.00000223 00000-0 -14831-4 0 9992 2 43790 97.7057 263.1373 0014860 118.7146 241.5570 14.95720919 86939 ESEO 1 43792U 18099AL 20191.45242366 -.00000325 00000-0 -24105-4 0 9995 2 43792 097.7028 262.9624 0014606 116.1604 244.1121 14.95604716086997 CSIM 1 43793U 18099AM 20191.28967910 .00000755 00000-0 72240-4 0 9994 2 43793 097.7028 262.7977 0014780 114.2037 246.0731 14.96072871086955 Astrocast 0.1 1 43798U 18099AS 20191.36068798 .00000343 00000-0 35794-4 0 9990 2 43798 097.7054 263.1618 0014165 100.7988 259.4828 14.95883620087225 JO-97 1 43803U 18099AX 20191.46593674 .00000282 00000-0 30579-4 0 9992 2 43803 97.7023 262.7112 0016619 115.8576 244.4361 14.95516706 87222 Suomi 100 1 43804U 18099AY 20191.46693537 .00000307 00000-0 32814-4 0 9994 2 43804 97.7021 262.6998 0016685 115.9503 244.3439 14.95504859 87238 Al Farabi 2 1 43805U 18099AZ 20191.50624545 -.00000119 00000-0 -54907-5 0 9994 2 43805 97.7033 262.8284 0016706 115.2066 245.0890 14.95631586 87241 PWSat 2 1 43814U 18099BJ 20191.49504143 .00018108 00000-0 10174-2 0 9993 2 43814 097.7907 272.6773 0010823 122.8863 237.3410 15.13316933087054 CHOMPTT 1 43855U 18104G 20191.38194733 .00000718 00000-0 28680-4 0 9994 2 43855 085.0382 160.7040 0016544 338.9839 021.0721 15.23002866086868 ISAT 1 43879U 18111D 20191.56690834 .00000602 00000-0 58348-4 0 9997 2 43879 97.7011 98.6417 0013419 162.9710 197.1964 14.96257541 81782 UWE-4 1 43880U 18111E 20191.27646882 .00000238 00000-0 26016-4 0 9993 2 43880 097.7017 098.6361 0012507 166.1687 193.9879 14.96519815083757 Sparrow 1 43881U 18111F 20191.45853520 -.00000304 00000-0 -21609-4 0 9992 2 43881 097.7027 098.8916 0012553 163.3652 196.7983 14.96546981083783 Lume 1 1 43908U 18111AJ 20191.35715132 .00000721 00000-0 31450-4 0 9993 2 43908 097.2637 090.6460 0022941 067.5117 292.8547 15.25072281085362 FO-98 1 43933U 19003B 20191.41298617 .00000479 00000-0 23743-4 0 9999 2 43933 097.2283 240.3100 0018469 159.2991 200.8998 15.22137399081871 FO-99 1 43937U 19003F 20191.15397601 .00000900 00000-0 39201-4 0 9992 2 43937 097.2246 241.3635 0025086 144.5666 215.7245 15.24426600081943 Delphini 1 1 44030U 98067PW 20191.27548527 .00011142 00000-0 10824-3 0 9991 2 44030 051.6325 203.7977 0002657 149.3646 210.7506 15.66875805081936 MYSat 1 1 44045U 18092F 20191.43165844 .00001364 00000-0 48126-4 0 9994 2 44045 051.6410 295.5636 0011588 045.6209 314.5721 15.36766585078663 AstroCast 0.2 1 44083U 19018F 20191.12250967 .00000438 00000-0 22430-4 0 9993 2 44083 97.4196 251.8671 0014928 95.9261 264.3677 15.21630279 70674 AISTechSat 3 1 44103U 19018AB 20191.43635510 .00000665 00000-0 31034-4 0 9993 2 44103 97.4074 252.3597 0015158 107.8804 308.7832 15.23191591 70786 AISat 1 1 44104U 19018AC 20191.45728751 .00000717 00000-0 25281-4 0 9991 2 44104 097.4628 261.2687 0059377 133.6589 226.9597 15.31087921071172 Raavana-1 1 44329U 98067QE 20191.44926143 .00005548 00000-0 78490-4 0 9992 2 44329 051.6380 223.8547 0006152 080.8205 279.3483 15.58227968060437 Uguisu 1 44330U 98067QF 20191.46297737 .00005407 00000-0 76917-4 0 9992 2 44330 051.6360 223.9370 0006167 079.9917 280.1771 15.58137110060414 NepaliSat-1 1 44331U 98067QG 20191.37726881 .00005420 00000-0 76782-4 0 9995 2 44331 051.6359 224.1169 0006180 082.6729 277.4966 15.58245129060414 Prox-1 1 44339U 19036A 20191.72568985 .00000669 00000-0 10886-3 0 9992 2 44339 24.0009 331.7396 0011317 33.2709 326.8492 14.53031561 55372 Oculus-ASR 1 44348U 19036K 20191.51006311 .00007050 00000-0 10192-3 0 9990 2 44348 28.5150 238.5945 0366332 183.0558 176.7770 15.02714096 57120 Armadillo 1 44352U 19036P 20191.41792126 .00009478 00000-0 13722-3 0 9998 2 44352 028.5303 234.3551 0353611 189.1210 170.2822 15.05530172057109 NO-104 1 44354U 19036R 20191.42701018 .00007117 00000-0 10104-3 0 9990 2 44354 028.5293 236.2708 0363173 185.6816 173.9577 15.03735526057139 NO-103 1 44355U 19036S 20191.42137493 .00012133 00000-0 16669-3 0 9997 2 44355 028.5298 226.4553 0341019 201.6355 156.9512 15.09325873057233 CP9 1 44360U 19036X 20191.39260283 .00019640 -61098-5 21174-3 0 9990 2 44360 028.5137 210.7529 0321576 228.0448 129.2318 15.16810810057260 Move-IIb 1 44398U 19038N 20191.51913568 .00000828 00000-0 51155-4 0 9999 2 44398 97.5373 152.4701 0026721 53.7769 306.5926 15.12356980 55910 SONATE 1 44400U 19038Q 20191.62521400 .00000363 00000-0 24807-4 0 9993 2 44400 97.5410 152.5889 0026584 52.1314 308.2315 15.11971996 55921 BeeSat 9 1 44412U 19038AC 20191.43593442 .00000636 00000-0 40286-4 0 9992 2 44412 097.5396 152.4945 0024254 058.0706 302.2879 15.12325386055590 JAISAT-1 1 44419U 19038F 20191.44920297 .00000611 00000-0 38329-4 0 9990 2 44419 097.5398 152.7886 0023113 057.2798 303.0657 15.12808983055920 LightSail-2 1 44420U 19036AC 20191.53130987 .00004263 00000-0 90248-3 0 9993 2 44420 24.0063 328.2876 0021355 4.8287 355.2408 14.55858110 53533 Taurus 1 1 44530U 19059C 20191.46805173 -.00000870 00000-0 -23356-3 0 9996 2 44530 098.5696 272.7667 0017002 096.7174 263.5960 14.45528602043524 MO-106 1 44830U 19084G 20191.37611604 .00050356 00000-0 25762-3 0 9996 2 44830 096.9701 060.7710 0025581 148.8020 211.4774 15.80687812033916 TRSI-Sat 1 44831U 19084H 20191.38774277 .00044745 00000-0 23255-3 0 9994 2 44831 96.9707 60.7796 0025653 148.2699 212.0123 15.80362671 33922 MO-105 1 44832U 19084J 20191.28840311 .00056862 00000-0 26911-3 0 9992 2 44832 096.9694 060.9030 0024069 147.3964 212.8798 15.82402125033912 Duchifat 3 1 44854U 19089C 20191.54164007 .00000243 00000-0 26064-4 0 9993 2 44854 36.9691 327.8154 0008876 252.1075 107.8711 14.99080907 31615 OPS-SAT 1 44878U 19092F 20191.42224969 .00000627 00000-0 36535-4 0 9994 2 44878 097.4690 014.3215 0012493 282.1954 077.7879 15.15514676030867 TO-108 1 44881U 19093C 20191.21020289 -.00000054 00000-0 48596-9 0 9995 2 44881 97.9580 267.1147 0014481 331.4354 28.6064 14.81413542 29914 FloripaSat 1 1 44885U 19093G 20191.46928397 .00000167 00000-0 27805-4 0 9992 2 44885 097.9581 267.5364 0014076 341.8986 018.1728 14.82044243029965 RS-44 1 44909U 19096E 20191.40615293 .00000022 00000-0 39044-4 0 9992 2 44909 082.5223 340.7236 0217572 174.9007 185.4385 12.79708184024992 SwampSat-2 1 45115U 19071E 20191.52972263 .00005533 00000-0 16791-3 0 9996 2 45115 51.6405 255.6176 0012560 139.0119 221.1810 15.35620258 24513 HO-107 1 45119U 19071J 20191.48780667 .00000539 00000-0 27863-4 0 9994 2 45119 051.6435 256.8185 0012631 132.1829 228.0227 15.33629152024501 Phoenix 1 45258U 98067RB 20191.48250480 .00002013 00000-0 41863-4 0 9990 2 45258 051.6404 236.8225 0006629 064.8262 295.3414 15.51001179021893 AztechSat-1 1 45261U 98067RE 20191.55671993 .00004166 00000-0 75360-4 0 9998 2 45261 51.6401 235.8248 0008168 79.4047 280.7862 15.52072652 21936 QARMAN 1 45263U 98067RG 20191.40840635 .00003520 00000-0 66425-4 0 9990 2 45263 051.6402 237.0818 0007721 076.4525 283.7324 15.51386613021949 Quetzal 1 1 45598U 98067RL 20191.42972309 .00003074 00000-0 60734-4 0 9998 2 45598 051.6408 237.9725 0002800 158.1348 201.9761 15.50523032011208 BY70-2 1 45857U 20042B 20191.21027144 .00000653 00000-0 10184-3 0 9992 2 45857 098.0137 264.1863 0010093 231.5909 128.4393 14.76199709000903 /EX